"read_dt","SO2 (ppb)","flags","PMT voltage (V)","lamp voltage (V)","lamp intensity (Hz)","internal temp (C)","react chamber temp (C)","sample flow (l/min)","pres (mmHg)","SO2 bkg (ppb)","SO2 coefficient"
2015-07-10 00:00:00,1765E-3,5C000000,-0723,0824,12259,032.1,045.6,0.469,731.3,01.19,0.508
2015-07-10 00:01:00,1501E-3,5C000000,-0723,0824,12259,032.1,045.6,0.469,731.3,01.19,0.508
2015-07-10 00:02:00,1748E-3,5C000000,-0723,0824,12088,032.1,045.6,0.468,731.3,01.19,0.508
2015-07-10 00:03:00,1786E-3,5C000000,-0723,0824,12277,032.1,045.6,0.469,731.3,01.19,0.508
2015-07-10 00:04:00,1655E-3,5C000000,-0723,0823,12261,032.1,045.6,0.468,731.3,01.19,0.508
2015-07-10 00:05:00,1640E-3,5C000000,-0723,0823,12369,032.1,045.6,0.469,731.2,01.19,0.508
2015-07-10 00:06:00,1834E-3,5C000000,-0723,0823,12239,032.1,045.6,0.469,731.2,01.19,0.508
2015-07-10 00:07:00,1760E-3,5C000000,-0723,0824,12297,032.1,045.6,0.469,731.2,01.19,0.508
2015-07-10 00:08:00,1597E-3,5C000000,-0723,0824,12359,032.1,045.6,0.469,731.2,01.19,0.508
2015-07-10 00:09:00,1709E-3,5C000000,-0723,0823,12286,032.1,045.6,0.468,731.3,01.19,0.508
2015-07-10 00:10:00,1625E-3,5C000000,-0723,0823,12252,032.1,045.6,0.469,731.3,01.19,0.508
2015-07-10 00:11:00,1740E-3,5C000000,-0723,0823,12209,032.1,045.6,0.468,731.3,01.19,0.508
2015-07-10 00:12:00,1607E-3,5C000000,-0723,0823,12403,032.2,045.6,0.469,731.3,01.19,0.508
2015-07-10 00:13:00,1714E-3,5C000000,-0723,0823,12156,032.2,045.6,0.468,731.3,01.19,0.508
2015-07-10 00:14:00,1602E-3,5C000000,-0723,0824,11984,032.2,045.6,0.469,731.3,01.19,0.508
2015-07-10 00:15:00,1766E-3,5C000000,-0723,0823,12245,032.2,045.6,0.469,731.3,01.19,0.508
2015-07-10 00:16:00,1718E-3,5C000000,-0723,0824,12029,032.2,045.6,0.468,731.3,01.19,0.508
2015-07-10 00:17:00,1726E-3,5C000000,-0723,0825,12299,032.2,045.6,0.469,731.3,01.19,0.508
2015-07-10 00:18:00,1775E-3,5C000000,-0723,0824,12292,032.2,045.6,0.468,731.3,01.19,0.508
2015-07-10 00:19:00,1688E-3,5C000000,-0723,0823,12311,032.2,045.6,0.469,731.3,01.19,0.508
2015-07-10 00:20:00,1827E-3,5C000000,-0723,0823,12213,032.2,045.6,0.468,731.3,01.19,0.508
2015-07-10 00:21:00,1657E-3,5C000000,-0723,0823,12221,032.2,045.6,0.469,731.3,01.19,0.508
2015-07-10 00:22:00,1648E-3,5C000000,-0723,0823,12187,032.2,045.6,0.468,731.3,01.19,0.508
2015-07-10 00:23:00,1714E-3,5C000000,-0723,0823,12133,032.2,045.6,0.469,731.3,01.19,0.508
2015-07-10 00:24:00,1674E-3,5C000000,-0723,0822,12281,032.2,045.6,0.468,731.3,01.19,0.508
2015-07-10 00:25:00,1607E-3,5C000000,-0723,0823,12283,032.2,045.6,0.469,731.3,01.19,0.508
2015-07-10 00:26:00,1757E-3,5C000000,-0723,0823,12202,032.2,045.6,0.468,731.3,01.19,0.508
2015-07-10 00:27:00,1763E-3,5C000000,-0723,0824,12319,032.2,045.6,0.468,731.3,01.19,0.508
2015-07-10 00:28:00,1663E-3,5C000000,-0723,0822,12095,032.2,045.6,0.469,731.3,01.19,0.508
2015-07-10 00:29:00,1665E-3,5C000000,-0723,0823,12095,032.3,045.6,0.468,731.3,01.19,0.508
2015-07-10 00:30:00,1656E-3,5C000000,-0723,0824,12223,032.2,045.6,0.469,731.3,01.19,0.508
2015-07-10 00:31:00,1676E-3,5C000000,-0723,0823,12323,032.2,045.6,0.468,731.3,01.19,0.508
2015-07-10 00:32:00,1736E-3,5C000000,-0723,0824,12403,032.3,045.6,0.469,731.3,01.19,0.508
2015-07-10 00:33:00,1667E-3,5C000000,-0723,0823,12188,032.3,045.6,0.468,731.3,01.19,0.508
2015-07-10 00:34:00,1622E-3,5C000000,-0723,0823,12060,032.3,045.6,0.469,731.3,01.19,0.508
2015-07-10 00:35:00,1700E-3,5C000000,-0723,0823,12243,032.3,045.6,0.468,731.3,01.19,0.508
2015-07-10 00:36:00,1646E-3,5C000000,-0723,0823,12408,032.3,045.6,0.469,731.3,01.19,0.508
2015-07-10 00:37:00,1643E-3,5C000000,-0723,0823,12120,032.3,045.6,0.468,731.3,01.19,0.508
2015-07-10 00:38:00,1569E-3,5C000000,-0723,0823,12116,032.3,045.6,0.469,731.2,01.19,0.508
2015-07-10 00:39:00,1692E-3,5C000000,-0723,0822,12152,032.3,045.6,0.468,731.2,01.19,0.508
2015-07-10 00:40:00,1780E-3,5C000000,-0723,0824,12194,032.3,045.6,0.468,731.2,01.19,0.508
2015-07-10 00:41:00,1713E-3,5C000000,-0723,0824,12332,032.3,045.6,0.468,731.2,01.19,0.508
2015-07-10 00:42:00,1755E-3,5C000000,-0723,0822,12172,032.3,045.6,0.468,731.2,01.19,0.508
2015-07-10 00:43:00,1622E-3,5C000000,-0723,0823,12208,032.3,045.6,0.468,731.2,01.19,0.508
2015-07-10 00:44:00,1684E-3,5C000000,-0723,0824,12171,032.3,045.6,0.468,731.2,01.19,0.508
2015-07-10 00:45:00,1799E-3,5C000000,-0723,0824,12328,032.3,045.6,0.469,731.2,01.19,0.508
2015-07-10 00:46:00,1678E-3,5C000000,-0723,0823,12396,032.3,045.6,0.468,731.2,01.19,0.508
2015-07-10 00:47:00,1694E-3,5C000000,-0723,0822,12097,032.3,045.6,0.469,731.2,01.19,0.508
2015-07-10 00:48:00,1765E-3,5C000000,-0723,0824,12265,032.3,045.6,0.468,731.2,01.19,0.508
2015-07-10 00:49:00,1530E-3,5C000000,-0723,0824,12133,032.3,045.6,0.469,731.1,01.19,0.508
2015-07-10 00:50:00,1794E-3,5C000000,-0723,0824,12296,032.3,045.6,0.468,731.1,01.19,0.508
2015-07-10 00:51:00,1647E-3,5C000000,-0723,0823,12509,032.4,045.6,0.469,731.1,01.19,0.508
2015-07-10 00:52:00,1594E-3,5C000000,-0723,0823,12222,032.3,045.6,0.468,731.1,01.19,0.508
2015-07-10 00:53:00,1671E-3,5C000000,-0723,0823,12149,032.3,045.6,0.468,731.1,01.19,0.508
2015-07-10 00:54:00,1637E-3,5C000000,-0723,0823,12152,032.4,045.6,0.468,731.1,01.19,0.508
2015-07-10 00:55:00,1668E-3,5C000000,-0723,0823,12182,032.3,045.6,0.468,731.1,01.19,0.508
2015-07-10 00:56:00,1921E-3,5C000000,-0723,0823,12212,032.4,045.6,0.468,731.1,01.19,0.508
2015-07-10 00:57:00,1711E-3,5C000000,-0723,0822,12206,032.4,045.6,0.468,731.1,01.19,0.508
2015-07-10 00:58:00,1526E-3,5C000000,-0723,0823,12390,032.3,045.6,0.468,731.1,01.19,0.508
2015-07-10 00:59:00,1728E-3,5C000000,-0723,0823,12159,032.4,045.6,0.468,731.1,01.19,0.508
2015-07-10 01:00:00,1657E-3,5C000000,-0723,0823,12286,032.4,045.6,0.468,731.1,01.19,0.508
2015-07-10 01:01:00,1645E-3,5C000000,-0723,0824,12306,032.4,045.6,0.468,731.1,01.19,0.508
2015-07-10 01:02:00,1699E-3,5C000000,-0723,0824,12155,032.4,045.6,0.468,731.1,01.19,0.508
2015-07-10 01:03:00,1696E-3,5C000000,-0723,0822,12364,032.4,045.6,0.468,731.1,01.19,0.508
2015-07-10 01:04:00,1655E-3,5C000000,-0723,0823,12389,032.4,045.6,0.468,731.1,01.19,0.508
2015-07-10 01:05:00,1714E-3,5C000000,-0723,0824,12320,032.4,045.6,0.468,731.1,01.19,0.508
2015-07-10 01:06:00,1688E-3,5C000000,-0723,0823,12186,032.4,045.6,0.468,731.1,01.19,0.508
2015-07-10 01:07:00,1524E-3,5C000000,-0723,0823,12105,032.4,045.6,0.468,731.1,01.19,0.508
2015-07-10 01:08:00,1549E-3,5C000000,-0723,0823,12021,032.4,045.6,0.468,731.1,01.19,0.508
2015-07-10 01:09:00,1603E-3,5C000000,-0723,0824,12154,032.4,045.6,0.468,731.0,01.19,0.508
2015-07-10 01:10:00,1684E-3,5C000000,-0723,0823,12249,032.4,045.6,0.468,731.0,01.19,0.508
2015-07-10 01:11:00,1803E-3,5C000000,-0723,0822,12305,032.4,045.6,0.468,731.1,01.19,0.508
2015-07-10 01:12:00,1721E-3,5C000000,-0723,0823,12338,032.4,045.6,0.468,731.0,01.19,0.508
2015-07-10 01:13:00,1736E-3,5C000000,-0723,0822,12182,032.4,045.6,0.468,731.1,01.19,0.508
2015-07-10 01:14:00,1600E-3,5C000000,-0723,0823,12324,032.5,045.6,0.468,731.1,01.19,0.508
2015-07-10 01:15:00,1665E-3,5C000000,-0723,0824,12228,032.4,045.6,0.468,731.1,01.19,0.508
2015-07-10 01:16:00,1790E-3,5C000000,-0723,0824,12377,032.4,045.6,0.468,731.1,01.19,0.508
2015-07-10 01:17:00,1632E-3,5C000000,-0723,0823,12103,032.4,045.6,0.468,731.1,01.19,0.508
2015-07-10 01:18:00,1683E-3,5C000000,-0723,0823,12078,032.5,045.6,0.468,731.1,01.19,0.508
2015-07-10 01:19:00,1636E-3,5C000000,-0723,0823,12371,032.5,045.6,0.468,731.1,01.19,0.508
2015-07-10 01:20:00,1795E-3,5C000000,-0723,0824,12155,032.4,045.6,0.468,731.1,01.19,0.508
2015-07-10 01:21:00,1785E-3,5C000000,-0723,0823,12284,032.5,045.6,0.468,731.1,01.19,0.508
2015-07-10 01:22:00,1753E-3,5C000000,-0723,0824,12204,032.5,045.6,0.468,731.1,01.19,0.508
2015-07-10 01:23:00,1624E-3,5C000000,-0723,0824,12294,032.5,045.6,0.468,731.1,01.19,0.508
2015-07-10 01:24:00,1693E-3,5C000000,-0723,0824,12107,032.5,045.6,0.468,731.1,01.19,0.508
2015-07-10 01:25:00,1811E-3,5C000000,-0723,0824,12279,032.5,045.6,0.468,731.1,01.19,0.508
2015-07-10 01:26:00,1748E-3,5C000000,-0723,0824,12286,032.5,045.6,0.468,731.1,01.19,0.508
2015-07-10 01:27:00,1738E-3,5C000000,-0723,0823,12259,032.5,045.6,0.468,731.1,01.19,0.508
2015-07-10 01:28:00,1689E-3,5C000000,-0723,0824,12069,032.5,045.6,0.468,731.0,01.19,0.508
2015-07-10 01:29:00,1720E-3,5C000000,-0723,0824,12278,032.5,045.6,0.468,731.1,01.19,0.508
2015-07-10 01:30:00,1629E-3,5C000000,-0723,0824,12204,032.5,045.6,0.468,731.0,01.19,0.508
2015-07-10 01:31:00,1790E-3,5C000000,-0723,0824,12284,032.5,045.6,0.468,731.0,01.19,0.508
2015-07-10 01:32:00,1682E-3,5C000000,-0723,0824,12150,032.5,045.6,0.468,731.0,01.19,0.508
2015-07-10 01:33:00,1810E-3,5C000000,-0723,0824,12378,032.5,045.6,0.468,731.0,01.19,0.508
2015-07-10 01:34:00,1642E-3,5C000000,-0723,0825,12221,032.5,045.6,0.468,731.0,01.19,0.508
2015-07-10 01:35:00,1599E-3,5C000000,-0723,0825,12240,032.5,045.6,0.468,731.0,01.19,0.508
2015-07-10 01:36:00,1659E-3,5C000000,-0723,0825,12238,032.5,045.6,0.468,731.0,01.19,0.508
2015-07-10 01:37:00,1766E-3,5C000000,-0723,0824,12198,032.5,045.6,0.468,731.0,01.19,0.508
2015-07-10 01:38:00,1795E-3,5C000000,-0723,0824,12289,032.5,045.6,0.468,731.0,01.19,0.508
2015-07-10 01:39:00,1609E-3,5C000000,-0723,0824,12056,032.6,045.6,0.468,731.0,01.19,0.508
2015-07-10 01:40:00,1673E-3,5C000000,-0723,0825,12306,032.5,045.6,0.468,731.0,01.19,0.508
2015-07-10 01:41:00,1601E-3,5C000000,-0723,0824,12181,032.6,045.6,0.468,731.0,01.19,0.508
2015-07-10 01:42:00,1648E-3,5C000000,-0723,0824,12120,032.5,045.6,0.468,731.0,01.19,0.508
2015-07-10 01:43:00,1712E-3,5C000000,-0723,0825,12377,032.6,045.6,0.468,730.9,01.19,0.508
2015-07-10 01:44:00,1798E-3,5C000000,-0723,0824,12276,032.6,045.6,0.468,731.0,01.19,0.508
2015-07-10 01:45:00,1656E-3,5C000000,-0723,0824,12191,032.6,045.6,0.468,730.9,01.19,0.508
2015-07-10 01:46:00,1697E-3,5C000000,-0723,0824,12129,032.6,045.6,0.468,731.0,01.19,0.508
2015-07-10 01:47:00,1737E-3,5C000000,-0723,0824,12283,032.6,045.6,0.468,731.0,01.19,0.508
2015-07-10 01:48:00,1519E-3,5C000000,-0723,0824,12302,032.6,045.6,0.468,730.9,01.19,0.508
2015-07-10 01:49:00,1807E-3,5C000000,-0723,0824,12184,032.6,045.6,0.468,730.9,01.19,0.508
2015-07-10 01:50:00,1611E-3,5C000000,-0723,0824,12073,032.6,045.6,0.468,730.9,01.19,0.508
2015-07-10 01:51:00,1608E-3,5C000000,-0723,0825,12190,032.6,045.6,0.468,730.9,01.19,0.508
2015-07-10 01:52:00,1821E-3,5C000000,-0723,0824,12211,032.6,045.6,0.468,730.9,01.19,0.508
2015-07-10 01:53:00,1814E-3,5C000000,-0723,0824,12253,032.6,045.6,0.468,731.0,01.19,0.508
2015-07-10 01:54:00,1772E-3,5C000000,-0723,0825,12192,032.6,045.6,0.468,730.9,01.19,0.508
2015-07-10 01:55:00,1815E-3,5C000000,-0723,0825,12307,032.6,045.6,0.468,731.0,01.19,0.508
2015-07-10 01:56:00,1734E-3,5C000000,-0723,0825,12181,032.6,045.6,0.468,730.9,01.19,0.508
2015-07-10 01:57:00,1656E-3,5C000000,-0723,0824,12218,032.6,045.6,0.467,731.0,01.19,0.508
2015-07-10 01:58:00,1717E-3,5C000000,-0723,0824,12223,032.6,045.6,0.468,730.9,01.19,0.508
2015-07-10 01:59:00,1718E-3,5C000000,-0723,0824,12392,032.7,045.6,0.467,731.0,01.19,0.508
2015-07-10 02:00:00,1760E-3,5C000000,-0723,0824,12365,032.7,045.6,0.468,730.9,01.19,0.508
2015-07-10 02:01:00,1705E-3,5C000000,-0723,0825,12249,032.7,045.6,0.468,730.9,01.19,0.508
2015-07-10 02:02:00,1686E-3,5C000000,-0723,0824,12222,032.6,045.6,0.468,730.9,01.19,0.508
2015-07-10 02:03:00,1592E-3,5C000000,-0723,0825,12165,032.7,045.6,0.468,730.9,01.19,0.508
2015-07-10 02:04:00,1669E-3,5C000000,-0723,0824,12232,032.7,045.6,0.468,730.9,01.19,0.508
2015-07-10 02:05:00,1715E-3,5C000000,-0723,0824,12118,032.7,045.6,0.468,730.9,01.19,0.508
2015-07-10 02:06:00,1648E-3,5C000000,-0723,0824,12089,032.7,045.6,0.467,730.9,01.19,0.508
2015-07-10 02:07:00,1749E-3,5C000000,-0723,0823,12302,032.7,045.6,0.468,730.9,01.19,0.508
2015-07-10 02:08:00,1622E-3,5C000000,-0723,0824,12134,032.7,045.6,0.467,730.9,01.19,0.508
2015-07-10 02:09:00,1676E-3,5C000000,-0723,0824,12289,032.7,045.6,0.468,730.9,01.19,0.508
2015-07-10 02:10:00,1732E-3,5C000000,-0723,0824,12238,032.7,045.6,0.468,730.9,01.19,0.508
2015-07-10 02:11:00,1661E-3,5C000000,-0723,0823,12118,032.7,045.6,0.468,731.0,01.19,0.508
2015-07-10 02:12:00,1635E-3,5C000000,-0723,0824,12192,032.7,045.6,0.468,730.9,01.19,0.508
2015-07-10 02:13:00,1600E-3,5C000000,-0723,0824,12329,032.7,045.6,0.467,730.9,01.19,0.508
2015-07-10 02:14:00,1601E-3,5C000000,-0723,0824,12229,032.7,045.6,0.468,731.0,01.19,0.508
2015-07-10 02:15:00,1720E-3,5C000000,-0723,0824,12168,032.7,045.6,0.467,730.9,01.19,0.508
2015-07-10 02:16:00,1842E-3,5C000000,-0723,0824,12186,032.7,045.6,0.468,730.9,01.19,0.508
2015-07-10 02:17:00,1693E-3,5C000000,-0723,0824,12178,032.7,045.6,0.467,730.8,01.19,0.508
2015-07-10 02:18:00,1728E-3,5C000000,-0723,0824,12376,032.7,045.6,0.468,730.9,01.19,0.508
2015-07-10 02:19:00,1712E-3,5C000000,-0723,0824,12303,032.7,045.6,0.468,730.9,01.19,0.508
2015-07-10 02:20:00,1789E-3,5C000000,-0723,0824,12189,032.7,045.6,0.468,730.9,01.19,0.508
2015-07-10 02:21:00,1650E-3,5C000000,-0723,0824,12227,032.7,045.6,0.468,730.8,01.19,0.508
2015-07-10 02:22:00,1819E-3,5C000000,-0723,0825,12407,032.7,045.6,0.467,730.9,01.19,0.508
2015-07-10 02:23:00,1513E-3,5C000000,-0723,0824,12305,032.7,045.6,0.468,730.8,01.19,0.508
2015-07-10 02:24:00,1685E-3,5C000000,-0723,0825,12192,032.8,045.6,0.467,730.8,01.19,0.508
2015-07-10 02:25:00,1645E-3,5C000000,-0723,0823,12257,032.8,045.6,0.468,730.8,01.19,0.508
2015-07-10 02:26:00,1788E-3,5C000000,-0723,0824,12151,032.7,045.6,0.467,730.8,01.19,0.508
2015-07-10 02:27:00,1632E-3,5C000000,-0723,0824,12177,032.8,045.6,0.468,730.7,01.19,0.508
2015-07-10 02:28:00,1720E-3,5C000000,-0723,0824,12307,032.8,045.6,0.468,730.7,01.19,0.508
2015-07-10 02:29:00,1649E-3,5C000000,-0723,0824,12160,032.8,045.6,0.467,730.7,01.19,0.508
2015-07-10 02:30:00,1632E-3,5C000000,-0723,0825,12208,032.8,045.6,0.468,730.7,01.19,0.508
2015-07-10 02:31:00,1659E-3,5C000000,-0723,0825,12258,032.8,045.6,0.467,730.7,01.19,0.508
2015-07-10 02:32:00,1782E-3,5C000000,-0723,0824,12353,032.8,045.6,0.468,730.7,01.19,0.508
2015-07-10 02:33:00,1771E-3,5C000000,-0723,0824,12258,032.8,045.6,0.467,730.7,01.19,0.508
2015-07-10 02:34:00,1767E-3,5C000000,-0723,0824,12372,032.8,045.6,0.467,730.7,01.19,0.508
2015-07-10 02:35:00,1543E-3,5C000000,-0723,0824,12337,032.8,045.6,0.468,730.7,01.19,0.508
2015-07-10 02:36:00,1606E-3,5C000000,-0723,0825,12235,032.8,045.6,0.467,730.7,01.19,0.508
2015-07-10 02:37:00,1685E-3,5C000000,-0723,0824,12319,032.8,045.6,0.468,730.7,01.19,0.508
2015-07-10 02:38:00,1792E-3,5C000000,-0723,0824,12231,032.8,045.6,0.467,730.7,01.19,0.508
2015-07-10 02:39:00,1830E-3,5C000000,-0723,0824,12118,032.8,045.6,0.467,730.7,01.19,0.508
2015-07-10 02:40:00,1592E-3,5C000000,-0723,0823,12205,032.8,045.6,0.468,730.6,01.19,0.508
2015-07-10 02:41:00,1524E-3,5C000000,-0723,0825,12238,032.8,045.6,0.467,730.7,01.19,0.508
2015-07-10 02:42:00,1713E-3,5C000000,-0723,0825,12369,032.8,045.6,0.468,730.6,01.19,0.508
2015-07-10 02:43:00,1667E-3,5C000000,-0723,0824,12280,032.8,045.6,0.467,730.6,01.19,0.508
2015-07-10 02:44:00,1649E-3,5C000000,-0723,0824,12154,032.8,045.6,0.467,730.6,01.19,0.508
2015-07-10 02:45:00,1754E-3,5C000000,-0723,0824,12266,032.9,045.6,0.468,730.7,01.19,0.508
2015-07-10 02:46:00,1678E-3,5C000000,-0723,0823,12282,032.8,045.6,0.467,730.6,01.19,0.508
2015-07-10 02:47:00,1706E-3,5C000000,-0723,0824,12422,032.8,045.6,0.467,730.6,01.19,0.508
2015-07-10 02:48:00,1610E-3,5C000000,-0723,0824,12273,032.9,045.6,0.467,730.6,01.19,0.508
2015-07-10 02:49:00,1713E-3,5C000000,-0723,0823,12309,032.9,045.6,0.467,730.6,01.19,0.508
2015-07-10 02:50:00,1686E-3,5C000000,-0723,0823,12231,032.8,045.6,0.468,730.6,01.19,0.508
2015-07-10 02:51:00,1599E-3,5C000000,-0723,0824,12372,032.9,045.6,0.467,730.7,01.19,0.508
2015-07-10 02:52:00,1732E-3,5C000000,-0723,0824,12188,032.9,045.6,0.467,730.6,01.19,0.508
2015-07-10 02:53:00,1637E-3,5C000000,-0723,0824,12254,032.9,045.6,0.467,730.6,01.19,0.508
2015-07-10 02:54:00,1712E-3,5C000000,-0723,0824,12379,032.9,045.6,0.467,730.6,01.19,0.508
2015-07-10 02:55:00,1802E-3,5C000000,-0723,0824,12318,032.9,045.6,0.468,730.6,01.19,0.508
2015-07-10 02:56:00,1781E-3,5C000000,-0723,0825,12149,032.9,045.6,0.467,730.6,01.19,0.508
2015-07-10 02:57:00,1672E-3,5C000000,-0723,0824,12281,032.9,045.6,0.467,730.6,01.19,0.508
2015-07-10 02:58:00,1551E-3,5C000000,-0723,0824,12291,032.9,045.6,0.467,730.6,01.19,0.508
2015-07-10 02:59:00,1744E-3,5C000000,-0723,0824,12140,032.9,045.6,0.467,730.5,01.19,0.508
2015-07-10 03:00:00,1661E-3,5C000000,-0723,0824,12128,032.9,045.6,0.467,730.5,01.19,0.508
2015-07-10 03:01:00,1779E-3,5C000000,-0723,0824,12377,032.9,045.6,0.467,730.6,01.19,0.508
2015-07-10 03:02:00,1681E-3,5C000000,-0723,0824,12154,032.9,045.6,0.468,730.5,01.19,0.508
2015-07-10 03:03:00,1736E-3,5C000000,-0723,0825,12334,032.9,045.6,0.467,730.5,01.19,0.508
2015-07-10 03:04:00,1703E-3,5C000000,-0723,0825,12165,032.9,045.6,0.467,730.6,01.19,0.508
2015-07-10 03:05:00,1882E-3,5C000000,-0723,0825,12257,032.9,045.6,0.467,730.6,01.19,0.508
2015-07-10 03:06:00,1700E-3,5C000000,-0723,0824,12163,032.9,045.6,0.467,730.5,01.19,0.508
2015-07-10 03:07:00,1693E-3,5C000000,-0723,0824,12299,033.0,045.6,0.467,730.5,01.19,0.508
2015-07-10 03:08:00,1932E-3,5C000000,-0723,0825,12252,033.0,045.6,0.467,730.5,01.19,0.508
2015-07-10 03:09:00,1748E-3,5C000000,-0723,0824,12166,033.0,045.6,0.467,730.6,01.19,0.508
2015-07-10 03:10:00,1775E-3,5C000000,-0723,0824,12389,033.0,045.6,0.467,730.5,01.19,0.508
2015-07-10 03:11:00,1606E-3,5C000000,-0723,0824,12226,033.0,045.6,0.467,730.5,01.19,0.508
2015-07-10 03:12:00,1775E-3,5C000000,-0723,0824,12198,033.0,045.6,0.467,730.5,01.19,0.508
2015-07-10 03:13:00,1717E-3,5C000000,-0723,0825,12265,033.0,045.6,0.467,730.5,01.19,0.508
2015-07-10 03:14:00,1641E-3,5C000000,-0723,0824,12197,033.0,045.6,0.467,730.5,01.19,0.508
2015-07-10 03:15:00,1582E-3,5C000000,-0723,0825,12410,033.0,045.6,0.467,730.5,01.19,0.508
2015-07-10 03:16:00,1817E-3,5C000000,-0723,0824,12088,033.0,045.6,0.467,730.5,01.19,0.508
2015-07-10 03:17:00,1646E-3,5C000000,-0723,0825,12404,033.0,045.6,0.467,730.5,01.19,0.508
2015-07-10 03:18:00,1701E-3,5C000000,-0723,0824,12244,033.0,045.6,0.467,730.5,01.19,0.508
2015-07-10 03:19:00,1841E-3,5C000000,-0723,0825,12199,033.0,045.6,0.467,730.4,01.19,0.508
2015-07-10 03:20:00,1752E-3,5C000000,-0723,0825,12307,033.0,045.6,0.467,730.4,01.19,0.508
2015-07-10 03:21:00,1720E-3,5C000000,-0723,0824,12232,033.0,045.6,0.467,730.4,01.19,0.508
2015-07-10 03:22:00,1649E-3,5C000000,-0723,0824,12238,033.0,045.6,0.467,730.4,01.19,0.508
2015-07-10 03:23:00,1665E-3,5C000000,-0723,0824,12366,033.0,045.6,0.467,730.4,01.19,0.508
2015-07-10 03:24:00,1678E-3,5C000000,-0723,0825,12031,033.0,045.6,0.467,730.4,01.19,0.508
2015-07-10 03:25:00,1711E-3,5C000000,-0723,0825,12354,033.0,045.6,0.467,730.3,01.19,0.508
2015-07-10 03:26:00,1774E-3,5C000000,-0723,0824,12248,033.1,045.6,0.467,730.4,01.19,0.508
2015-07-10 03:27:00,1792E-3,5C000000,-0723,0824,12203,033.0,045.6,0.467,730.3,01.19,0.508
2015-07-10 03:28:00,1613E-3,5C000000,-0723,0825,12320,033.1,045.6,0.467,730.3,01.19,0.508
2015-07-10 03:29:00,1653E-3,5C000000,-0723,0825,12173,033.1,045.6,0.467,730.4,01.19,0.508
2015-07-10 03:30:00,1671E-3,5C000000,-0723,0826,12342,033.1,045.6,0.467,730.3,01.19,0.508
2015-07-10 03:31:00,1702E-3,5C000000,-0723,0825,12225,033.1,045.6,0.467,730.4,01.19,0.508
2015-07-10 03:32:00,1751E-3,5C000000,-0723,0824,12252,033.1,045.6,0.467,730.4,01.19,0.508
2015-07-10 03:33:00,1761E-3,5C000000,-0723,0825,12186,033.1,045.6,0.467,730.4,01.19,0.508
2015-07-10 03:34:00,1719E-3,5C000000,-0723,0825,12257,033.1,045.6,0.467,730.4,01.19,0.508
2015-07-10 03:35:00,1685E-3,5C000000,-0723,0824,12206,033.1,045.6,0.467,730.3,01.19,0.508
2015-07-10 03:36:00,1646E-3,5C000000,-0723,0825,12039,033.1,045.6,0.467,730.3,01.19,0.508
2015-07-10 03:37:00,1764E-3,5C000000,-0723,0825,12157,033.1,045.6,0.467,730.3,01.19,0.508
2015-07-10 03:38:00,1674E-3,5C000000,-0723,0824,12165,033.1,045.6,0.467,730.3,01.19,0.508
2015-07-10 03:39:00,1916E-3,5C000000,-0723,0825,12311,033.1,045.6,0.467,730.3,01.19,0.508
2015-07-10 03:40:00,1690E-3,5C000000,-0723,0825,12213,033.1,045.6,0.467,730.3,01.19,0.508
2015-07-10 03:41:00,1544E-3,5C000000,-0723,0825,12283,033.1,045.6,0.467,730.3,01.19,0.508
2015-07-10 03:42:00,1869E-3,5C000000,-0723,0825,12178,033.1,045.6,0.467,730.3,01.19,0.508
2015-07-10 03:43:00,1731E-3,5C000000,-0723,0825,12202,033.1,045.6,0.467,730.3,01.19,0.508
2015-07-10 03:44:00,1673E-3,5C000000,-0723,0826,12184,033.1,045.6,0.467,730.4,01.19,0.508
2015-07-10 03:45:00,1638E-3,5C000000,-0723,0824,12160,033.1,045.6,0.467,730.3,01.19,0.508
2015-07-10 03:46:00,1701E-3,5C000000,-0723,0825,12241,033.2,045.6,0.467,730.4,01.19,0.508
2015-07-10 03:47:00,1782E-3,5C000000,-0723,0825,12271,033.2,045.6,0.467,730.4,01.19,0.508
2015-07-10 03:48:00,1735E-3,5C000000,-0723,0825,12327,033.1,045.6,0.467,730.4,01.19,0.508
2015-07-10 03:49:00,1655E-3,5C000000,-0723,0825,12284,033.2,045.6,0.466,730.4,01.19,0.508
2015-07-10 03:50:00,1663E-3,5C000000,-0723,0825,12245,033.2,045.6,0.467,730.4,01.19,0.508
2015-07-10 03:51:00,1670E-3,5C000000,-0723,0825,12231,033.2,045.6,0.467,730.4,01.19,0.508
2015-07-10 03:52:00,1665E-3,5C000000,-0723,0825,12251,033.2,045.6,0.467,730.4,01.19,0.508
2015-07-10 03:53:00,1640E-3,5C000000,-0723,0824,12262,033.2,045.6,0.467,730.4,01.19,0.508
2015-07-10 03:54:00,1694E-3,5C000000,-0723,0825,12157,033.2,045.6,0.466,730.3,01.19,0.508
2015-07-10 03:55:00,1564E-3,5C000000,-0723,0824,12147,033.2,045.6,0.467,730.3,01.19,0.508
2015-07-10 03:56:00,1747E-3,5C000000,-0723,0824,12187,033.2,045.6,0.467,730.3,01.19,0.508
2015-07-10 03:57:00,1694E-3,5C000000,-0723,0825,12300,033.2,045.6,0.467,730.2,01.19,0.508
2015-07-10 03:58:00,1694E-3,5C000000,-0723,0824,12269,033.2,045.6,0.467,730.3,01.19,0.508
2015-07-10 03:59:00,1709E-3,5C000000,-0723,0824,12378,033.2,045.6,0.466,730.2,01.19,0.508
2015-07-10 04:00:00,1761E-3,5C000000,-0723,0825,12325,033.2,045.6,0.467,730.3,01.19,0.508
2015-07-10 04:01:00,1767E-3,5C000000,-0723,0824,11997,033.2,045.6,0.466,730.2,01.19,0.508
2015-07-10 04:02:00,1869E-3,5C000000,-0723,0825,12387,033.2,045.6,0.467,730.2,01.19,0.508
2015-07-10 04:03:00,1753E-3,5C000000,-0723,0825,12141,033.2,045.6,0.467,730.2,01.19,0.508
2015-07-10 04:04:00,1665E-3,5C000000,-0723,0824,12138,033.3,045.6,0.466,730.2,01.19,0.508
2015-07-10 04:05:00,1810E-3,5C000000,-0723,0826,12242,033.3,045.6,0.467,730.2,01.19,0.508
2015-07-10 04:06:00,1736E-3,5C000000,-0723,0825,12349,033.2,045.6,0.466,730.2,01.19,0.508
2015-07-10 04:07:00,1736E-3,5C000000,-0723,0825,12325,033.3,045.6,0.467,730.2,01.19,0.508
2015-07-10 04:08:00,1751E-3,5C000000,-0723,0825,12281,033.3,045.6,0.467,730.1,01.19,0.508
2015-07-10 04:09:00,1612E-3,5C000000,-0723,0823,12188,033.3,045.6,0.466,730.1,01.19,0.508
2015-07-10 04:10:00,1600E-3,5C000000,-0723,0825,12191,033.3,045.6,0.467,730.1,01.19,0.508
2015-07-10 04:11:00,1804E-3,5C000000,-0723,0824,12271,033.3,045.6,0.466,730.1,01.19,0.508
2015-07-10 04:12:00,1807E-3,5C000000,-0723,0824,12240,033.3,045.6,0.467,730.1,01.19,0.508
2015-07-10 04:13:00,1726E-3,5C000000,-0723,0825,12291,033.3,045.6,0.467,730.1,01.19,0.508
2015-07-10 04:14:00,1752E-3,5C000000,-0723,0825,12355,033.3,045.6,0.466,730.1,01.19,0.508
2015-07-10 04:15:00,1845E-3,5C000000,-0723,0824,12205,033.3,045.6,0.467,730.1,01.19,0.508
2015-07-10 04:16:00,1620E-3,5C000000,-0723,0823,12251,033.3,045.6,0.466,730.0,01.19,0.508
2015-07-10 04:17:00,1855E-3,5C000000,-0723,0824,12374,033.3,045.6,0.467,730.0,01.19,0.508
2015-07-10 04:18:00,1618E-3,5C000000,-0723,0823,12338,033.3,045.6,0.467,730.1,01.19,0.508
2015-07-10 04:19:00,1647E-3,5C000000,-0723,0823,12342,033.3,045.6,0.466,730.1,01.19,0.508
2015-07-10 04:20:00,1667E-3,5C000000,-0723,0825,12334,033.3,045.6,0.467,730.0,01.19,0.508